Torna al catalogo

CZ-2D R/B

AttivoLEO
NORAD 65853·ROCKET BODY·🇨🇳 China

Lanciato Sep 29, 2025 da Xichang Satellite Launch Center

Loading…

Prossimi Passaggi (prossime 24 ore)

TLE

AggiornatoSource: Space-Track

Epoca: Sep 14, 2026, 12:02 UTC

1 65853U 25222C   26257.50187531  .00001808  00000-0  13719-3 0  9993
2 65853  34.9026  58.8844 0053655 157.6293 202.6768 15.00864067 52653

Traccia CZ-2D R/B in tempo reale con AllMySat

Download on the App Store